Location: Boiro
(42.6475°N, 8.8834°W)
Time: 19:20:07
(UTC+01:00)

Explorer 7 - Pass Details

Date: 04 December 2021
Orbit: 483 x 674 km, 50.3° (Epoch: 26 January)

Event Time Altitude Azimuth Distance (km) Brightness Sun altitude
Rises 11:13:47 0° 299° (WNW) 2,682 9.8 18.3°
Reaches altitude 10° 11:16:14 10° 309° (NW) 1,759 8.9 18.5°
Maximum altitude 11:19:51 33° 14° (NNE) 867 7.6 18.9°
Drops below altitude 10° 11:23:20 10° 81° (E) 1,686 9.6 19.2°
Sets 11:25:37 0° 91° (E) 2,553 10.6 19.4°
